Location: Walton
(43.6794°N, 81.3017°W)
Time: 22:20:19
(UTC+00:00)

COSMOS 2406 - Pass Details

Date: 09 December 2025
Orbit: 844 x 860 km, 71.0° (Epoch: 21 January)

Event Time Altitude Azimuth Distance (km) Brightness Sun altitude
Exits shadow 10:09:47 - 193° (SSW) 2,529 5.6 -27.6°
Reaches altitude 10° 10:09:59 10° 193° (SSW) 2,456 5.5 -27.5°
Maximum altitude 10:15:34 68° 111° (ESE) 908 3.4 -26.5°
Drops below altitude 10° 10:21:12 10° 30° (NNE) 2,472 5.9 -25.5°
Sets 10:23:40 0° 28° (NNE) 3,412 6.6 -25.1°
